Location: Newark
(43.0000°N, 1.6781°W)
Time: 11:22:50
(UTC+00:00)

Vanguard 1 - Pass Details

Date: 19 April 2021
Orbit: 649 x 3834 km, 34.2° (Epoch: 04 May)

Event Time Altitude Azimuth Distance (km) Brightness Sun altitude
Rises 21:04:03 0° 284° (WNW) 7,818 15.7 -21.5°
Reaches altitude 10° 21:10:25 10° 275° (W) 6,922 15.1 -22.4°
Maximum altitude 21:28:01 29° 226° (SW) 5,176 13.6 -24.7°
Enters shadow 21:39:56 15° 182° (S) 5,394 13.4 -26.1°
